[[{"header":{"parameterUnit":"m.s-1","parameterCategory":1,"la1":30.2991,"la2":30.254,"lo1":-89.0895,"lo2":-89.0444,"dy":0.0017,"dx":0.0017,"nx":28,"ny":28,"refTime":"2024-06-14T03:00:00:Z","depth":0,"parameterNumber":2,"parameterNumberName":"U-component_of_WINDS"},"data":[0,0,0,0,0,0,0,0,0,0,0,0,0,0,0,0,0,0,0,0,0,0,0,0,0,0,0,0,0,0,0,0,0,0,0,0,0,0,0,0,0,0,0,0,0,0,0,0,0,0,0,0,0,0,0,0,0,0,-2.4134,-2.4133,0,-2.4068,-2.4067,-2.4066,-2.3985,-2.3984,-2.3983,-2.3982,-2.3914,-2.3914,-2.3913,0,0,0,0,0,0,0,0,0,0,0,0,0,-2.4192,-2.4192,-2.4134,-2.4133,-2.4132,-2.4068,-2.4067,-2.4066,-2.3986,-2.3984,-2.3983,-2.3981,-2.3915,-2.3914,-2.3913,0,0,0,0,0,0,0,0,0,0,0,0,0,-2.4151,-2.4191,-2.4134,-2.4084,-2.4079,-2.4068,-2.4067,-2.4066,-2.3986,-2.3984,-2.3982,-2.398,-2.3915,-2.3914,-2.3913,-2.3946,0,0,-2.391,-2.391,0,0,0,0,0,0,0,0,-2.4153,-2.4149,-2.4092,-2.4088,-2.4082,-2.4033,-2.4063,-2.4026,-2.3987,-2.4021,-2.3982,-2.3979,-2.3955,-2.3951,-2.3943,-2.3943,-2.394,-2.391,-2.391,-2.3909,-2.3909,0,0,0,0,0,0,0,-2.4156,-2.4151,-2.4108,-2.4092,-2.4085,-2.4066,-2.4058,-2.4056,-2.4,-2.4018,-2.4012,-2.4005,-2.3952,-2.3944,-2.3941,-2.3939,-2.391,-2.3909,-2.3909,-2.3909,-2.3965,-2.3967,0,0,0,0,0,0,-2.4166,-2.4154,-2.411,-2.4106,-2.4114,-2.4067,-2.4058,-2.4051,-2.4,-2.399,-2.4007,-2.4002,-2.3946,-2.3942,-2.3938,-2.3974,-2.3909,-2.3908,-2.3908,-2.3963,-2.3966,-2.3968,0,0,0,0,0,0,-2.4168,-2.4163,-2.4112,-2.4128,-2.412,-2.4068,-2.406,-2.405,-2.4042,-2.3991,-2.3981,-2.4009,-2.3945,-2.3939,-2.3945,-2.3971,-2.3908,-2.3907,-2.3961,-2.3964,-2.3967,-2.4046,0,0,0,0,0,0,-2.417,-2.4164,-2.4175,-2.4129,-2.412,-2.412,-2.4062,-2.405,-2.4041,-2.4033,-2.399,-2.3981,-2.3943,-2.3947,-2.3944,-2.3968,-2.3907,-2.3958,-2.3962,-2.3966,-2.4041,-2.4052,-2.4061,0,0,0,0,0,-2.4172,-2.4199,-2.4176,-2.4171,-2.4132,-2.4121,-2.4116,-2.4071,-2.4043,-2.4054,-2.4022,-2.3983,-2.3969,-2.3948,-2.3944,-2.3969,-2.3956,-2.3961,-2.3966,-2.4037,-2.405,-2.4061,0,0,0,0,0,0,-2.4248,-2.4192,-2.4166,-2.4178,-2.4156,-2.4108,-2.412,-2.4086,-2.407,-2.4064,-2.4009,-2.4,-2.4013,-2.3992,-2.397,-2.3999,-2.3957,-2.3961,-2.4013,-2.4024,-2.4034,-2.4039,-2.3906,0,0,0,0,0,-2.4267,-2.4263,-2.4214,-2.423,-2.422,-2.4173,-2.4166,-2.4134,-2.4108,-2.4098,-2.4066,-2.4043,-2.4033,-2.4028,-2.4016,-2.4039,-2.4029,-2.4054,-2.4064,-2.4072,-2.4076,-2.4089,-2.41,-2.3983,-2.3983,-2.3983,0,0,-2.4305,-2.4274,-2.4274,-2.4245,-2.4223,-2.4221,-2.4165,-2.4164,-2.4162,-2.4097,-2.4101,-2.4078,-2.4048,-2.4063,-2.4068,-2.4046,-2.4107,-2.4078,-2.4085,-2.4084,-2.4095,-2.4106,-2.4116,-2.3986,-2.3986,-2.3985,0,0,-2.4372,-2.4348,-2.4359,-2.434,-2.4309,-2.4277,-2.4281,-2.4239,-2.4221,-2.4225,-2.4177,-2.4175,-2.4159,-2.4141,-2.4129,-2.4195,-2.4159,-2.4193,-2.4244,-2.4257,-2.4266,-2.4274,-2.4298,-2.4308,-2.4197,-2.4198,-2.4198,0,-2.4423,-2.4416,-2.437,-2.4373,-2.4362,-2.4306,-2.4318,-2.4302,-2.4268,-2.4263,-2.4238,-2.422,-2.4196,-2.4207,-2.4224,-2.4216,-2.4219,-2.4196,-2.4269,-2.4276,-2.4283,-2.4305,-2.4314,-2.4202,-2.4201,-2.4201,-2.4201,0,-2.4481,-2.4478,-2.4491,-2.4462,-2.4453,-2.4461,-2.4417,-2.4414,-2.4384,-2.4357,-2.4362,-2.4332,-2.4315,-2.4315,-2.4285,-2.4323,-2.4311,-2.4278,-2.4234,-2.4299,-2.4319,-2.4328,-2.4208,-2.4207,-2.4205,-2.4204,0,0,-2.459,-2.4538,-2.4544,-2.4531,-2.4494,-2.4491,-2.4498,-2.4482,-2.4481,-2.4462,-2.4466,-2.4457,-2.4428,-2.4415,-2.4384,-2.4395,-2.4451,-2.4362,-2.436,-2.438,-2.4493,-2.4517,-2.4528,-2.4428,-2.4429,-2.4431,-2.4496,0,-2.4651,-2.4658,-2.4619,-2.4637,-2.4635,-2.4584,-2.459,-2.4569,-2.4545,-2.454,-2.4513,-2.4508,-2.4469,-2.4462,-2.4471,-2.4442,-2.4473,-2.4437,-2.4433,-2.4433,-2.444,-2.4538,-2.4563,-2.4625,-2.4503,-2.4504,-2.4505,0,-2.4721,-2.4706,-2.4725,-2.4691,-2.4688,-2.4694,-2.4678,-2.4674,-2.4651,-2.4632,-2.4621,-2.4585,-2.4591,-2.4551,-2.4559,-2.4536,-2.4532,-2.4519,-2.452,-2.4517,-2.4472,-2.4537,-2.4644,-2.4653,-2.4517,-2.4516,-2.4516,0,-2.48,-2.4785,-2.4795,-2.4786,-2.4745,-2.4751,-2.4735,-2.471,-2.4704,-2.469,-2.4686,-2.4673,-2.4666,-2.4658,-2.4621,-2.4595,-2.4634,-2.459,-2.462,-2.4621,-2.4629,-2.4628,-2.4736,-2.4628,-2.4628,-2.4628,-2.4627,0,-2.487,-2.4884,-2.483,-2.4836,-2.4851,-2.4807,-2.4823,-2.4802,-2.4781,-2.4783,-2.4738,-2.4741,-2.4692,-2.4691,-2.4662,-2.4674,-2.4671,-2.4657,-2.4649,-2.4661,-2.4663,-2.4656,-2.4651,-2.463,-2.463,-2.4629,-2.4629,0,-2.496,-2.4924,-2.4932,-2.4895,-2.4886,-2.4898,-2.4867,-2.4872,-2.4846,-2.485,-2.4848,-2.4808,-2.4804,-2.4767,-2.4754,-2.4735,-2.4759,-2.4742,-2.4766,-2.4761,-2.4793,-2.479,-2.4899,-2.4912,-2.4797,-2.4798,-2.4799,0,-2.5006,-2.5016,-2.4981,-2.4979,-2.4966,-2.4963,-2.4958,-2.4916,-2.4912,-2.4889,-2.4897,-2.489,-2.4882,-2.4879,-2.4849,-2.484,-2.4823,-2.4862,-2.4821,-2.4834,-2.4824,-2.4824,-2.4825,-2.487,-2.4872,-2.4873,-2.4874,0,-2.5094,-2.5077,-2.507,-2.5059,-2.5054,-2.5042,-2.5028,-2.503,-2.4985,-2.4983,-2.4979,-2.4973,-2.4962,-2.4956,-2.4943,-2.4927,-2.4894,-2.4888,-2.4894,-2.4905,-2.4919,-2.4912,-2.479,-2.4885,-2.4883,-2.4883,-2.4882,-2.4882,-2.5163,-2.517,-2.5147,-2.5142,-2.5128,-2.5118,-2.5121,-2.5097,-2.5093,-2.5081,-2.5057,-2.5058,-2.5038,-2.5016,-2.5004,-2.5005,-2.4984,-2.4993,-2.4996,-2.4998,-2.5005,-2.492,-2.5002,-2.5002,-2.5001,-2.5001,-2.5001,0,-2.5248,-2.5232,-2.5228,-2.5211,-2.5208,-2.5179,-2.5163,-2.5163,-2.5163,-2.5148,-2.5142,-2.5139,-2.5134,-2.5106,-2.5098,-2.5104,-2.5089,-2.5103,-2.5102,-2.5099,-2.5023,-2.5018,-2.5116,-2.5116,-2.5116,-2.5116,-2.5116,-2.5116,-2.5292,-2.5303,-2.5284,-2.5289,-2.5273,-2.5273,-2.5267,-2.5258,-2.5245,-2.5244,-2.524,-2.5222,-2.5202,-2.5193,-2.5188,-2.518,-2.5179,-2.5199,-2.5186,-2.5115,-2.5104,-2.5094,-2.5089,-2.52,-2.52,-2.5262,-2.5263,-2.5263]},{"header":{"parameterUnit":"m.s-1","parameterCategory":1,"la1":30.2991,"la2":30.254,"lo1":-89.0895,"lo2":-89.0444,"dy":0.0017,"dx":0.0017,"nx":28,"ny":28,"refTime":"2024-06-14T03:00:00:Z","depth":0,"parameterNumber":3,"parameterNumberName":"V-component_of_WINDS"},"data":[0,0,0,0,0,0,0,0,0,0,0,0,0,0,0,0,0,0,0,0,0,0,0,0,0,0,0,0,0,0,0,0,0,0,0,0,0,0,0,0,0,0,0,0,0,0,0,0,0,0,0,0,0,0,0,0,0,0,2.5468,2.5468,0,2.5483,2.5483,2.5483,2.5561,2.5563,2.5565,2.5567,2.5574,2.5573,2.5571,0,0,0,0,0,0,0,0,0,0,0,0,0,2.5502,2.5501,2.5468,2.5468,2.5469,2.5483,2.5483,2.5483,2.5561,2.5563,2.5566,2.5568,2.5575,2.5573,2.5571,0,0,0,0,0,0,0,0,0,0,0,0,0,2.5499,2.5501,2.5468,2.5509,2.5513,2.5483,2.5483,2.5483,2.556,2.5563,2.5566,2.5569,2.5575,2.5573,2.5571,2.55,0,0,2.5564,2.5563,0,0,0,0,0,0,0,0,2.5499,2.5498,2.5503,2.5506,2.5511,2.5523,2.5498,2.5488,2.556,2.5542,2.5567,2.557,2.5554,2.5554,2.555,2.55,2.55,2.5563,2.5562,2.5561,2.556,0,0,0,0,0,0,0,2.5499,2.5497,2.5474,2.5503,2.5508,2.5525,2.5528,2.5496,2.5532,2.5544,2.555,2.5551,2.5557,2.5552,2.5551,2.55,2.5563,2.5561,2.556,2.5559,2.5393,2.539,0,0,0,0,0,0,2.5495,2.5497,2.5473,2.5474,2.5512,2.5522,2.5525,2.5516,2.5533,2.5538,2.5548,2.5554,2.5555,2.5554,2.5552,2.5469,2.5561,2.5559,2.5557,2.5396,2.5392,2.5389,0,0,0,0,0,0,2.5495,2.5492,2.5473,2.5487,2.5486,2.5519,2.5508,2.5515,2.5511,2.5536,2.5542,2.5537,2.5557,2.5555,2.5513,2.547,2.5558,2.5556,2.5399,2.5395,2.539,2.5303,0,0,0,0,0,0,2.5496,2.5491,2.5466,2.5486,2.5485,2.5435,2.5505,2.5513,2.5507,2.5515,2.5527,2.5532,2.5559,2.5516,2.551,2.5469,2.5554,2.5403,2.5397,2.5392,2.531,2.5296,2.5284,0,0,0,0,0,2.5497,2.5439,2.5464,2.5461,2.5454,2.5432,2.5431,2.5466,2.5503,2.5477,2.5494,2.5532,2.5477,2.5511,2.5505,2.5462,2.5406,2.5399,2.5392,2.5315,2.5299,2.5285,0,0,0,0,0,0,2.5409,2.5442,2.547,2.5418,2.5422,2.5445,2.5413,2.5447,2.5438,2.5446,2.5487,2.5489,2.544,2.5448,2.5485,2.5395,2.5448,2.5439,2.5391,2.5375,2.5363,2.5361,2.5552,0,0,0,0,0,2.5385,2.5366,2.5395,2.5346,2.5347,2.538,2.5371,2.5398,2.5403,2.5404,2.5418,2.5419,2.5402,2.539,2.5376,2.5313,2.5315,2.528,2.5268,2.5257,2.5248,2.5215,2.5199,2.5367,2.5367,2.5367,0,0,2.5331,2.5348,2.5333,2.5329,2.5335,2.5313,2.538,2.5354,2.5337,2.5399,2.536,2.5371,2.5375,2.5322,2.5299,2.5326,2.5204,2.5248,2.524,2.5237,2.5206,2.519,2.5176,2.5362,2.5363,2.5364,0,0,2.5224,2.5235,2.5195,2.5201,2.5211,2.5234,2.5224,2.5243,2.5253,2.5216,2.5262,2.5242,2.5213,2.5214,2.521,2.5106,2.514,2.5101,2.5033,2.5,2.4987,2.4975,2.4936,2.4922,2.5093,2.5092,2.5092,0,2.5156,2.5127,2.517,2.5141,2.5137,2.5197,2.5156,2.5158,2.5162,2.5157,2.5189,2.5154,2.5161,2.5108,2.5083,2.5079,2.5068,2.5098,2.4986,2.4974,2.4964,2.4928,2.4913,2.5087,2.5088,2.5089,2.5089,0,2.5042,2.5021,2.4988,2.4993,2.4986,2.4951,2.4987,2.4975,2.5003,2.5022,2.4983,2.4994,2.4983,2.4974,2.5,2.4925,2.4942,2.4979,2.5032,2.4943,2.4909,2.4895,2.508,2.5082,2.5084,2.5085,0,0,2.4876,2.4908,2.4895,2.4898,2.4915,2.4898,2.4866,2.4859,2.4846,2.4848,2.482,2.4796,2.4831,2.4827,2.4854,2.4826,2.4741,2.4866,2.4867,2.4841,2.4658,2.4628,2.4611,2.4765,2.4763,2.4761,2.4657,0,2.4772,2.472,2.4759,2.47,2.468,2.4738,2.471,2.4716,2.4733,2.4718,2.4737,2.4718,2.4767,2.4765,2.4739,2.4756,2.4704,2.4765,2.4737,2.4736,2.4732,2.4594,2.4561,2.4462,2.4644,2.4642,2.464,0,2.4642,2.4641,2.458,2.4602,2.4595,2.4569,2.4566,2.4552,2.456,2.4575,2.4572,2.4607,2.4576,2.4631,2.4587,2.4628,2.462,2.4626,2.4624,2.462,2.468,2.4583,2.4432,2.4416,2.462,2.4622,2.4623,0,2.4525,2.4508,2.4469,2.4471,2.4495,2.4476,2.4485,2.4497,2.449,2.4487,2.4482,2.4475,2.4469,2.4462,2.4494,2.4532,2.4445,2.4504,2.4454,2.4453,2.443,2.4431,2.4272,2.4429,2.443,2.443,2.443,0,2.4402,2.4362,2.4417,2.4393,2.435,2.4395,2.4351,2.4366,2.4376,2.4354,2.4404,2.4382,2.4427,2.441,2.4435,2.4394,2.4391,2.4401,2.4407,2.4395,2.4393,2.4387,2.4394,2.4426,2.4427,2.4428,2.4428,0,2.4262,2.4297,2.4259,2.4288,2.4294,2.426,2.4284,2.4262,2.4285,2.4257,2.4253,2.4287,2.4269,2.4302,2.4287,2.4304,2.4246,2.4265,2.4244,2.4248,2.4196,2.42,2.4026,2.4005,2.4178,2.4176,2.4175,0,2.418,2.4151,2.4177,2.4168,2.4175,2.4159,2.4154,2.4198,2.4189,2.4198,2.4174,2.4162,2.4154,2.4123,2.4145,2.4134,2.4151,2.4091,2.4149,2.4138,2.4148,2.4148,2.4145,2.4078,2.4076,2.4074,2.4073,0,2.403,2.405,2.4041,2.4039,2.4031,2.4031,2.4034,2.4023,2.4069,2.4057,2.4042,2.4036,2.4023,2.4009,2.4004,2.4012,2.4049,2.4055,2.4043,2.4028,2.4016,2.402,2.4208,2.4058,2.4059,2.406,2.4061,2.4062,2.3915,2.3893,2.3908,2.3896,2.3904,2.3906,2.3887,2.3909,2.3897,2.3892,2.3919,2.3896,2.3906,2.3904,2.3908,2.3891,2.3917,2.3899,2.3894,2.3889,2.388,2.4022,2.389,2.3891,2.3891,2.3891,2.3892,0,2.3767,2.378,2.377,2.3774,2.3764,2.3805,2.381,2.3799,2.378,2.3787,2.378,2.3761,2.3749,2.3771,2.3762,2.3743,2.376,2.3739,2.3739,2.374,2.3857,2.3868,2.3726,2.3726,2.3726,2.3726,2.3726,2.3726,2.3688,2.3651,2.3673,2.364,2.3654,2.3635,2.3634,2.3636,2.3642,2.362,2.3611,2.3628,2.3641,2.3633,2.3623,2.363,2.3623,2.3595,2.3608,2.3716,2.3732,2.3747,2.3758,2.3594,2.3594,2.3492,2.3491,2.349]}]]